VOC4070 MROC-MMUN

Flight info

Callsign VOC4070
Flight time 1h 46m
Altitude 36000
Route NANJO4U ULAPO DCT KELVO DCT SIGMA SIGMA2G
Aircraft A320/M-SDE3FGHIRWY/LB1

Departure

Time 2026-04-29 23:18
Airport Juan Santamaría International Airport (MROC)

Arrival

Time 2026-04-30 01:05
Airport Cancún International Airport (MMUN)
Time Latitude Longitude Altitude Speed Heading
2026-04-29 22:47 9.99785 -84.20276 3036 ft 0 kts 339°
2026-04-29 23:00 9.99780 -84.20274 3035 ft 2 kts 339°
2026-04-29 23:00 9.99764 -84.20268 3035 ft 2 kts 339°
2026-04-29 23:00 9.99756 -84.20265 3035 ft 0 kts 339°
2026-04-29 23:01 9.99750 -84.20263 3035 ft 2 kts 339°
2026-04-29 23:01 9.99733 -84.20259 3035 ft 3 kts 356°
2026-04-29 23:01 9.99715 -84.20259 3035 ft 2 kts
2026-04-29 23:01 9.99705 -84.20260 3035 ft 0 kts
2026-04-29 23:06 9.99710 -84.20257 3035 ft 2 kts 34°
2026-04-29 23:06 9.99732 -84.20234 3035 ft 7 kts 46°
2026-04-29 23:06 9.99748 -84.20186 3035 ft 8 kts 70°
2026-04-29 23:06 9.99770 -84.20125 3035 ft 11 kts 70°
2026-04-29 23:07 9.99797 -84.20046 3035 ft 13 kts 78°
2026-04-29 23:07 9.99750 -84.20002 3035 ft 10 kts 170°
2026-04-29 23:07 9.99685 -84.19968 3035 ft 12 kts 162°
2026-04-29 23:07 9.99601 -84.19938 3035 ft 14 kts 148°
2026-04-29 23:08 9.99586 -84.19882 3035 ft 3 kts 59°
2026-04-29 23:08 9.99602 -84.19854 3035 ft 6 kts 62°
2026-04-29 23:08 9.99620 -84.19811 3035 ft 8 kts 69°
2026-04-29 23:08 9.99641 -84.19752 3035 ft 10 kts 69°
2026-04-29 23:09 9.99669 -84.19678 3035 ft 12 kts 69°
2026-04-29 23:09 9.99700 -84.19593 3035 ft 9 kts 69°
2026-04-29 23:09 9.99732 -84.19533 3035 ft 10 kts 14°
2026-04-29 23:09 9.99778 -84.19533 3035 ft 0 kts 336°
2026-04-29 23:15 9.99782 -84.19534 3035 ft 2 kts 336°
2026-04-29 23:15 9.99807 -84.19545 3035 ft 7 kts 336°
2026-04-29 23:15 9.99868 -84.19578 3035 ft 9 kts 287°
2026-04-29 23:16 9.99867 -84.19611 3035 ft 0 kts 254°
2026-04-29 23:17 9.99865 -84.19617 3035 ft 2 kts 252°
2026-04-29 23:17 9.99842 -84.19683 3035 ft 27 kts 249°
2026-04-29 23:17 9.99696 -84.20070 3035 ft 90 kts 249°
2026-04-29 23:18 9.99403 -84.20851 3036 ft 144 kts 248°
2026-04-29 23:18 9.99025 -84.21942 3072 ft 181 kts 252°
2026-04-29 23:18 9.98662 -84.23180 3510 ft 183 kts 248°
2026-04-29 23:18 9.98224 -84.24366 4169 ft 177 kts 249°
2026-04-29 23:19 9.97782 -84.25513 4797 ft 173 kts 251°
2026-04-29 23:19 9.97593 -84.26705 5224 ft 175 kts 281°
2026-04-29 23:19 9.98180 -84.27693 5673 ft 158 kts 327°
2026-04-29 23:19 9.99172 -84.28209 5931 ft 160 kts 338°
2026-04-29 23:20 10.00231 -84.28612 5965 ft 177 kts 356°
2026-04-29 23:20 10.01566 -84.28784 5762 ft 210 kts 339°
2026-04-29 23:20 10.02801 -84.29659 6046 ft 218 kts 316°
2026-04-29 23:20 10.03848 -84.30738 6683 ft 213 kts 315°
2026-04-29 23:21 10.04152 -84.31047 6814 ft 215 kts 316°
2026-04-29 23:21 10.05305 -84.32051 7122 ft 228 kts 325°
2026-04-29 23:21 10.06706 -84.32939 7439 ft 241 kts 330°
2026-04-29 23:21 10.08200 -84.33801 7766 ft 255 kts 330°
2026-04-29 23:22 10.09748 -84.34765 8085 ft 270 kts 327°
2026-04-29 23:22 10.11337 -84.35897 8424 ft 284 kts 322°
2026-04-29 23:22 10.12948 -84.37105 8931 ft 290 kts 323°
2026-04-29 23:22 10.14540 -84.38384 9446 ft 296 kts 321°
2026-04-29 23:23 10.16144 -84.39724 9999 ft 300 kts 321°
2026-04-29 23:23 10.17751 -84.41063 10524 ft 304 kts 322°
2026-04-29 23:23 10.19433 -84.42434 10895 ft 314 kts 322°
2026-04-29 23:23 10.21196 -84.43846 11176 ft 327 kts 322°
2026-04-29 23:24 10.23009 -84.45299 11422 ft 339 kts 323°
2026-04-29 23:24 10.24921 -84.46807 11625 ft 352 kts 323°
2026-04-29 23:24 10.26889 -84.48348 11813 ft 364 kts 322°
2026-04-29 23:24 10.28927 -84.49954 11993 ft 376 kts 322°
2026-04-29 23:25 10.30998 -84.51598 12154 ft 387 kts 322°
2026-04-29 23:25 10.33162 -84.53329 12313 ft 397 kts 322°
2026-04-29 23:25 10.35340 -84.55075 12428 ft 408 kts 322°
2026-04-29 23:25 10.37590 -84.56877 12445 ft 419 kts 322°
2026-04-29 23:26 10.39917 -84.58733 12612 ft 426 kts 322°
2026-04-29 23:26 10.42266 -84.60601 12923 ft 428 kts 322°
2026-04-29 23:26 10.44583 -84.62442 13244 ft 429 kts 322°
2026-04-29 23:26 10.46962 -84.64340 13562 ft 431 kts 322°
2026-04-29 23:27 10.49303 -84.66209 13862 ft 432 kts 322°
2026-04-29 23:27 10.51684 -84.68110 14155 ft 434 kts 321°
2026-04-29 23:27 10.54048 -84.69995 14437 ft 435 kts 322°
2026-04-29 23:27 10.56470 -84.71922 14734 ft 437 kts 322°
2026-04-29 23:28 10.58887 -84.73844 15021 ft 438 kts 322°
2026-04-29 23:28 10.61280 -84.75752 15282 ft 440 kts 321°
2026-04-29 23:28 10.63716 -84.77698 15553 ft 441 kts 321°
2026-04-29 23:28 10.66109 -84.79612 15802 ft 443 kts 321°
2026-04-29 23:29 10.68494 -84.81602 16025 ft 445 kts 317°
2026-04-29 23:29 10.70744 -84.83784 16256 ft 446 kts 316°
2026-04-29 23:29 10.72970 -84.85980 16490 ft 448 kts 315°
2026-04-29 23:29 10.75220 -84.88223 16800 ft 448 kts 315°
2026-04-29 23:30 10.77464 -84.90454 17094 ft 448 kts 315°
2026-04-29 23:30 10.79704 -84.92662 17343 ft 449 kts 315°
2026-04-29 23:30 10.81935 -84.94840 17565 ft 451 kts 315°
2026-04-29 23:30 10.84230 -84.97072 17725 ft 454 kts 315°
2026-04-29 23:31 10.86530 -84.99313 17882 ft 457 kts 315°
2026-04-29 23:31 10.88846 -85.01583 18079 ft 459 kts 315°
2026-04-29 23:31 10.91128 -85.03827 18287 ft 461 kts 315°
2026-04-29 23:31 10.93423 -85.06086 18550 ft 461 kts 314°
2026-04-29 23:32 10.95738 -85.08368 18780 ft 462 kts 314°
2026-04-29 23:32 10.98082 -85.10675 19043 ft 462 kts 314°
2026-04-29 23:32 11.00377 -85.12928 19295 ft 462 kts 314°
2026-04-29 23:32 11.02821 -85.15101 19499 ft 465 kts 322°
2026-04-29 23:33 11.05545 -85.16805 19676 ft 470 kts 333°
2026-04-29 23:33 11.07626 -85.17632 19800 ft 473 kts 341°
2026-04-29 23:33 11.10008 -85.18138 19975 ft 476 kts 351°
2026-04-29 23:33 11.13077 -85.18398 20305 ft 474 kts 353°
2026-04-29 23:34 11.16378 -85.18596 20575 ft 475 kts 355°
2026-04-29 23:34 11.19668 -85.18791 20689 ft 478 kts 354°
2026-04-29 23:34 11.22984 -85.19058 20821 ft 480 kts 352°
2026-04-29 23:34 11.26305 -85.19405 20990 ft 481 kts 351°
2026-04-29 23:35 11.29631 -85.19792 21162 ft 483 kts 351°
2026-04-29 23:35 11.32976 -85.20179 21326 ft 484 kts 351°
2026-04-29 23:35 11.36352 -85.20538 21482 ft 486 kts 352°
2026-04-29 23:35 11.39728 -85.20860 21628 ft 488 kts 352°
2026-04-29 23:36 11.43147 -85.21166 21781 ft 490 kts 352°
2026-04-29 23:36 11.46545 -85.21475 21951 ft 491 kts 352°
2026-04-29 23:36 11.48816 -85.21691 22057 ft 492 kts 352°
2026-04-29 23:36 11.52028 -85.22011 22195 ft 493 kts 352°
2026-04-29 23:37 11.55483 -85.22368 22334 ft 495 kts 351°
2026-04-29 23:37 11.58867 -85.22720 22473 ft 496 kts 351°
2026-04-29 23:37 11.62346 -85.23073 22611 ft 498 kts 352°
2026-04-29 23:37 11.65825 -85.23417 22743 ft 499 kts 352°
2026-04-29 23:38 11.69250 -85.23749 22868 ft 500 kts 352°
2026-04-29 23:38 11.72741 -85.24087 22994 ft 502 kts 352°
2026-04-29 23:38 11.76049 -85.24411 23111 ft 503 kts 351°
2026-04-29 23:38 11.79568 -85.24763 23226 ft 504 kts 351°
2026-04-29 23:39 11.83059 -85.25115 23339 ft 506 kts 351°
2026-04-29 23:39 11.86569 -85.25467 23451 ft 507 kts 351°
2026-04-29 23:39 11.90090 -85.25817 23559 ft 508 kts 351°
2026-04-29 23:39 11.93651 -85.26169 23664 ft 510 kts 351°
2026-04-29 23:40 11.97201 -85.26519 23761 ft 511 kts 351°
2026-04-29 23:40 12.00729 -85.26867 23859 ft 512 kts 351°
2026-04-29 23:40 12.04302 -85.27223 23956 ft 513 kts 351°
2026-04-29 23:40 12.07854 -85.27577 24048 ft 514 kts 351°
2026-04-29 23:41 12.11411 -85.27933 24138 ft 515 kts 351°
2026-04-29 23:41 12.14999 -85.28292 24223 ft 516 kts 351°
2026-04-29 23:41 12.18573 -85.28649 24311 ft 517 kts 351°
2026-04-29 23:41 12.22154 -85.29004 24389 ft 518 kts 351°
2026-04-29 23:42 12.25783 -85.29364 24464 ft 519 kts 351°
2026-04-29 23:42 12.29361 -85.29719 24535 ft 520 kts 351°
2026-04-29 23:42 12.32961 -85.30079 24670 ft 518 kts 351°
2026-04-29 23:42 12.36552 -85.30435 25036 ft 511 kts 351°
2026-04-29 23:43 12.40068 -85.30784 25291 ft 508 kts 350°
2026-04-29 23:43 12.43596 -85.31134 25343 ft 510 kts 350°
2026-04-29 23:43 12.47149 -85.31490 25345 ft 511 kts 350°
2026-04-29 23:43 12.50706 -85.31852 25486 ft 510 kts 351°
2026-04-29 23:44 12.54275 -85.32213 25536 ft 511 kts 351°
2026-04-29 23:44 12.57821 -85.32569 25522 ft 513 kts 351°
2026-04-29 23:44 12.61392 -85.32919 25622 ft 513 kts 351°
2026-04-29 23:44 12.64884 -85.33261 25725 ft 513 kts 351°
2026-04-29 23:45 12.68483 -85.33611 25788 ft 514 kts 351°
2026-04-29 23:45 12.72008 -85.33962 25775 ft 516 kts 351°
2026-04-29 23:45 12.75589 -85.34325 25828 ft 517 kts 351°
2026-04-29 23:45 12.79155 -85.34693 25964 ft 515 kts 351°
2026-04-29 23:46 12.82762 -85.35060 26064 ft 515 kts 351°
2026-04-29 23:46 12.86318 -85.35413 26125 ft 516 kts 351°
2026-04-29 23:46 12.89865 -85.35764 26112 ft 518 kts 351°
2026-04-29 23:46 12.93475 -85.36121 26173 ft 518 kts 351°
2026-04-29 23:47 12.97051 -85.36475 26295 ft 517 kts 351°
2026-04-29 23:47 13.00659 -85.36839 26388 ft 516 kts 351°
2026-04-29 23:47 13.04256 -85.37205 26424 ft 518 kts 351°
2026-04-29 23:47 13.07813 -85.37567 26453 ft 519 kts 351°
2026-04-29 23:48 13.11439 -85.37930 26562 ft 518 kts 351°
2026-04-29 23:48 13.15021 -85.38286 26674 ft 518 kts 351°
2026-04-29 23:48 13.18601 -85.38641 26769 ft 517 kts 351°
2026-04-29 23:48 13.22203 -85.38999 26801 ft 519 kts 351°
2026-04-29 23:49 13.25783 -85.39359 26893 ft 519 kts 351°
2026-04-29 23:49 13.29395 -85.39724 26988 ft 518 kts 351°
2026-04-29 23:49 13.32976 -85.40086 27091 ft 518 kts 351°
2026-04-29 23:49 13.36585 -85.40450 27182 ft 518 kts 351°
2026-04-29 23:50 13.40164 -85.40810 27269 ft 518 kts 351°
2026-04-29 23:50 13.43751 -85.41171 27353 ft 518 kts 351°
2026-04-29 23:50 13.50897 -85.41888 27527 ft 518 kts 351°
2026-04-29 23:51 13.54495 -85.42249 27598 ft 519 kts 351°
2026-04-29 23:51 13.58081 -85.42610 27687 ft 518 kts 351°
2026-04-29 23:51 13.61712 -85.42975 27765 ft 518 kts 351°
2026-04-29 23:51 13.65281 -85.43336 27826 ft 518 kts 351°
2026-04-29 23:52 13.68852 -85.43697 27814 ft 520 kts 351°
2026-04-29 23:52 13.72499 -85.44071 27784 ft 522 kts 351°
2026-04-29 23:52 13.76102 -85.44441 27837 ft 522 kts 351°
2026-04-29 23:52 13.79682 -85.44797 28020 ft 519 kts 351°
2026-04-29 23:53 13.83263 -85.45148 28143 ft 518 kts 351°
2026-04-29 23:53 13.90468 -85.45872 28200 ft 519 kts 351°
2026-04-29 23:54 13.97701 -85.46609 28398 ft 518 kts 351°
2026-04-29 23:54 14.01262 -85.46967 28526 ft 516 kts 351°
2026-04-29 23:54 14.04822 -85.47325 28654 ft 515 kts 351°
2026-04-29 23:54 14.08377 -85.47684 28781 ft 514 kts 351°
2026-04-29 23:55 14.11980 -85.48052 28912 ft 512 kts 351°
2026-04-29 23:55 14.15494 -85.48408 29039 ft 511 kts 351°
2026-04-29 23:55 14.19019 -85.48767 29161 ft 510 kts 351°
2026-04-29 23:55 14.22546 -85.49120 29281 ft 509 kts 351°
2026-04-29 23:56 14.26090 -85.49475 29406 ft 509 kts 351°
2026-04-29 23:56 14.29625 -85.49829 29532 ft 508 kts 351°
2026-04-29 23:56 14.33162 -85.50189 29658 ft 507 kts 351°
2026-04-29 23:56 14.36658 -85.50548 29782 ft 506 kts 350°
2026-04-29 23:57 14.40177 -85.50908 29909 ft 505 kts 350°
2026-04-29 23:57 14.43678 -85.51263 30036 ft 505 kts 350°
2026-04-29 23:57 14.47130 -85.51611 30159 ft 504 kts 350°
2026-04-29 23:57 14.50463 -85.51961 30353 ft 500 kts 352°
2026-04-29 23:58 14.53867 -85.52304 30825 ft 491 kts 353°
2026-04-29 23:58 14.57327 -85.52532 31344 ft 482 kts 355°
2026-04-29 23:58 14.60701 -85.52762 31656 ft 477 kts 350°
2026-04-29 23:58 14.63953 -85.53412 31780 ft 476 kts 348°
2026-04-29 23:59 14.67269 -85.53900 31909 ft 476 kts 352°
2026-04-29 23:59 14.70539 -85.54173 32033 ft 477 kts 354°
2026-04-29 23:59 14.73842 -85.54367 32162 ft 478 kts 355°
2026-04-29 23:59 14.77165 -85.54590 32294 ft 477 kts 354°
2026-04-30 00:00 14.80463 -85.54896 32431 ft 477 kts 354°
2026-04-30 00:00 14.83738 -85.55276 32559 ft 476 kts 353°
2026-04-30 00:00 14.87048 -85.55676 32685 ft 476 kts 353°
2026-04-30 00:00 14.90353 -85.56052 32811 ft 475 kts 353°
2026-04-30 00:01 14.93664 -85.56390 32939 ft 474 kts 354°
2026-04-30 00:01 14.96952 -85.56696 33068 ft 474 kts 354°
2026-04-30 00:01 15.00213 -85.56999 33195 ft 473 kts 354°
2026-04-30 00:01 15.03529 -85.57324 33324 ft 472 kts 354°
2026-04-30 00:02 15.06749 -85.57657 33449 ft 472 kts 354°
2026-04-30 00:02 15.10010 -85.58004 33578 ft 471 kts 353°
2026-04-30 00:02 15.13270 -85.58350 33707 ft 471 kts 354°
2026-04-30 00:02 15.16529 -85.58687 33837 ft 470 kts 354°
2026-04-30 00:03 15.19786 -85.59016 33966 ft 470 kts 354°
2026-04-30 00:03 15.23045 -85.59341 34102 ft 469 kts 354°
2026-04-30 00:03 15.26307 -85.59666 34243 ft 468 kts 354°
2026-04-30 00:03 15.29522 -85.59993 34377 ft 467 kts 354°
2026-04-30 00:04 15.31743 -85.60223 34466 ft 467 kts 354°
2026-04-30 00:04 15.34975 -85.60562 34599 ft 466 kts 354°
2026-04-30 00:04 15.38216 -85.60898 34736 ft 465 kts 354°
2026-04-30 00:04 15.41442 -85.61229 34871 ft 465 kts 354°
2026-04-30 00:05 15.44655 -85.61555 34999 ft 464 kts 354°
2026-04-30 00:05 15.47877 -85.61882 35127 ft 464 kts 354°
2026-04-30 00:05 15.51102 -85.62209 35248 ft 464 kts 354°
2026-04-30 00:05 15.54320 -85.62539 35374 ft 463 kts 354°
2026-04-30 00:06 15.57526 -85.62869 35510 ft 462 kts 354°
2026-04-30 00:06 15.60727 -85.63199 35644 ft 462 kts 354°
2026-04-30 00:06 15.63888 -85.63524 35771 ft 461 kts 354°
2026-04-30 00:06 15.67096 -85.63853 35898 ft 460 kts 353°
2026-04-30 00:07 15.70283 -85.64179 35955 ft 462 kts 353°
2026-04-30 00:07 15.76715 -85.64839 35956 ft 466 kts 353°
2026-04-30 00:08 15.83217 -85.65509 35963 ft 470 kts 354°
2026-04-30 00:08 15.89617 -85.66167 35935 ft 473 kts 354°
2026-04-30 00:09 15.96195 -85.66841 35973 ft 475 kts 354°
2026-04-30 00:09 16.02802 -85.67520 35961 ft 474 kts 354°
2026-04-30 00:10 16.09347 -85.68196 35959 ft 475 kts 353°
2026-04-30 00:10 16.15926 -85.68875 35959 ft 475 kts 353°
2026-04-30 00:11 16.22502 -85.69549 35948 ft 474 kts 354°
2026-04-30 00:11 16.29113 -85.70235 35964 ft 475 kts 353°
2026-04-30 00:12 16.35682 -85.70919 35950 ft 476 kts 354°
2026-04-30 00:12 16.42254 -85.71599 35963 ft 475 kts 354°
2026-04-30 00:13 16.48835 -85.72272 35967 ft 475 kts 354°
2026-04-30 00:13 16.55469 -85.72959 35975 ft 475 kts 354°
2026-04-30 00:14 16.61999 -85.73639 35963 ft 475 kts 354°
2026-04-30 00:14 16.68624 -85.74325 35963 ft 475 kts 354°
2026-04-30 00:15 16.75181 -85.75000 36081 ft 472 kts 354°
2026-04-30 00:15 16.81742 -85.75686 36070 ft 475 kts 353°
2026-04-30 00:16 16.88274 -85.76369 35995 ft 473 kts 353°
2026-04-30 00:16 16.94812 -85.77042 35953 ft 468 kts 353°
2026-04-30 00:17 17.01271 -85.77715 35954 ft 466 kts 353°
2026-04-30 00:17 17.07788 -85.78399 35805 ft 472 kts 353°
2026-04-30 00:18 17.14316 -85.79080 35770 ft 473 kts 353°
2026-04-30 00:18 17.20842 -85.79751 35888 ft 474 kts 353°
2026-04-30 00:19 17.27434 -85.80438 35918 ft 475 kts 353°
2026-04-30 00:19 17.34071 -85.81135 35928 ft 475 kts 353°
2026-04-30 00:20 17.40650 -85.81822 35909 ft 475 kts 353°
2026-04-30 00:20 17.47251 -85.82510 35926 ft 475 kts 353°
2026-04-30 00:21 17.53838 -85.83200 35947 ft 475 kts 353°
2026-04-30 00:21 17.60453 -85.83893 35933 ft 474 kts 353°
2026-04-30 00:22 17.67029 -85.84581 35921 ft 475 kts 353°
2026-04-30 00:22 17.73615 -85.85272 35948 ft 475 kts 353°
2026-04-30 00:23 17.80226 -85.85966 35947 ft 475 kts 353°
2026-04-30 00:23 17.86789 -85.86655 35942 ft 475 kts 353°
2026-04-30 00:24 17.93405 -85.87351 35943 ft 475 kts 353°
2026-04-30 00:24 17.99959 -85.88040 35927 ft 475 kts 353°
2026-04-30 00:25 18.06563 -85.88734 35951 ft 475 kts 353°
2026-04-30 00:25 18.13169 -85.89429 35940 ft 474 kts 353°
2026-04-30 00:26 18.19704 -85.90117 35940 ft 473 kts 353°
2026-04-30 00:26 18.26262 -85.90812 35901 ft 472 kts 353°
2026-04-30 00:27 18.32839 -85.91502 35884 ft 472 kts 353°
2026-04-30 00:27 18.39384 -85.92192 35892 ft 475 kts 353°
2026-04-30 00:28 18.45978 -85.92892 35902 ft 478 kts 353°
2026-04-30 00:28 18.52606 -85.93596 35909 ft 479 kts 353°
2026-04-30 00:29 18.58163 -85.94184 35934 ft 480 kts 353°
2026-04-30 00:29 18.64823 -85.94888 35988 ft 480 kts 353°
2026-04-30 00:30 18.71484 -85.95598 35984 ft 481 kts 353°
2026-04-30 00:30 18.78134 -85.96301 35987 ft 481 kts 353°
2026-04-30 00:31 18.84789 -85.97005 35974 ft 478 kts 353°
2026-04-30 00:31 18.91374 -85.97708 35980 ft 474 kts 353°
2026-04-30 00:32 18.97914 -85.98564 35937 ft 471 kts 346°
2026-04-30 00:32 19.01019 -85.99630 35897 ft 469 kts 335°
2026-04-30 00:32 19.03885 -86.01246 35929 ft 466 kts 329°
2026-04-30 00:33 19.09398 -86.04880 36026 ft 467 kts 327°
2026-04-30 00:33 19.15020 -86.08415 35987 ft 471 kts 330°
2026-04-30 00:34 19.20755 -86.11753 35949 ft 475 kts 330°
2026-04-30 00:34 19.26555 -86.15222 35930 ft 476 kts 329°
2026-04-30 00:35 19.32291 -86.18774 35966 ft 476 kts 329°
2026-04-30 00:35 19.38047 -86.22288 35987 ft 476 kts 330°
2026-04-30 00:36 19.43823 -86.25761 35961 ft 476 kts 330°
2026-04-30 00:36 19.49573 -86.29251 35700 ft 480 kts 329°
2026-04-30 00:36 19.52488 -86.31034 35368 ft 481 kts 329°
2026-04-30 00:37 19.55371 -86.32800 34927 ft 481 kts 330°
2026-04-30 00:37 19.58299 -86.34591 34383 ft 481 kts 330°
2026-04-30 00:37 19.61242 -86.36303 33742 ft 482 kts 334°
2026-04-30 00:37 19.64343 -86.37551 32989 ft 483 kts 343°
2026-04-30 00:38 19.67610 -86.38512 32200 ft 483 kts 345°
2026-04-30 00:38 19.70907 -86.39330 31252 ft 486 kts 346°
2026-04-30 00:38 19.74228 -86.40116 30164 ft 492 kts 345°
2026-04-30 00:38 19.77545 -86.40937 29302 ft 493 kts 344°
2026-04-30 00:39 19.80833 -86.41829 28752 ft 486 kts 343°
2026-04-30 00:39 19.84065 -86.42768 28420 ft 474 kts 342°
2026-04-30 00:39 19.87195 -86.43718 28242 ft 459 kts 341°
2026-04-30 00:39 19.90260 -86.44648 27953 ft 448 kts 342°
2026-04-30 00:40 19.93210 -86.45519 27385 ft 445 kts 342°
2026-04-30 00:40 19.96239 -86.46383 26752 ft 443 kts 343°
2026-04-30 00:40 19.99179 -86.47203 26380 ft 434 kts 343°
2026-04-30 00:40 20.02088 -86.48016 26023 ft 425 kts 343°
2026-04-30 00:41 20.04885 -86.48812 25539 ft 420 kts 343°
2026-04-30 00:41 20.07708 -86.49628 24982 ft 417 kts 343°
2026-04-30 00:41 20.10469 -86.50430 24557 ft 411 kts 344°
2026-04-30 00:41 20.13085 -86.51199 24268 ft 401 kts 344°
2026-04-30 00:42 20.15856 -86.51981 23929 ft 393 kts 345°
2026-04-30 00:42 20.18503 -86.52715 23340 ft 392 kts 346°
2026-04-30 00:42 20.21166 -86.53461 22428 ft 399 kts 346°
2026-04-30 00:42 20.23866 -86.54224 21607 ft 404 kts 346°
2026-04-30 00:43 20.26574 -86.54995 21127 ft 399 kts 346°
2026-04-30 00:43 20.29155 -86.55734 20867 ft 388 kts 347°
2026-04-30 00:43 20.31734 -86.56471 20372 ft 384 kts 347°
2026-04-30 00:43 20.34321 -86.57208 19781 ft 383 kts 347°
2026-04-30 00:44 20.36849 -86.57925 19338 ft 378 kts 347°
2026-04-30 00:44 20.39374 -86.58641 19071 ft 368 kts 347°
2026-04-30 00:44 20.41797 -86.59330 18913 ft 356 kts 347°
2026-04-30 00:44 20.44183 -86.60020 18804 ft 342 kts 347°
2026-04-30 00:45 20.46447 -86.60676 18621 ft 333 kts 347°
2026-04-30 00:45 20.48681 -86.61316 18167 ft 333 kts 347°
2026-04-30 00:45 20.50900 -86.61949 17692 ft 333 kts 348°
2026-04-30 00:45 20.53155 -86.62594 17307 ft 330 kts 347°
2026-04-30 00:46 20.55376 -86.63232 16879 ft 329 kts 347°
2026-04-30 00:46 20.57575 -86.63865 16516 ft 326 kts 347°
2026-04-30 00:46 20.59701 -86.64478 16368 ft 316 kts 347°
2026-04-30 00:46 20.61789 -86.65081 16256 ft 305 kts 348°
2026-04-30 00:47 20.63818 -86.65666 16153 ft 295 kts 348°
2026-04-30 00:47 20.65762 -86.66225 16045 ft 285 kts 348°
2026-04-30 00:47 20.67675 -86.66774 15743 ft 283 kts 348°
2026-04-30 00:47 20.69575 -86.67318 15367 ft 283 kts 348°
2026-04-30 00:48 20.71486 -86.67866 15035 ft 282 kts 348°
2026-04-30 00:48 20.73377 -86.68408 14724 ft 280 kts 348°
2026-04-30 00:48 20.75260 -86.68947 14395 ft 279 kts 347°
2026-04-30 00:48 20.77136 -86.69492 14056 ft 279 kts 347°
2026-04-30 00:49 20.78918 -86.70009 13761 ft 277 kts 347°
2026-04-30 00:49 20.80801 -86.70554 13425 ft 276 kts 347°
2026-04-30 00:49 20.82607 -86.71279 13127 ft 277 kts 331°
2026-04-30 00:49 20.83974 -86.72692 12832 ft 279 kts 308°
2026-04-30 00:50 20.84998 -86.74447 12562 ft 277 kts 302°
2026-04-30 00:50 20.85969 -86.76261 12249 ft 276 kts 303°
2026-04-30 00:50 20.86949 -86.77966 11979 ft 272 kts 306°
2026-04-30 00:50 20.88006 -86.79645 11716 ft 268 kts 307°
2026-04-30 00:51 20.89068 -86.81274 11408 ft 267 kts 307°
2026-04-30 00:51 20.90118 -86.82899 11124 ft 265 kts 306°
2026-04-30 00:51 20.91146 -86.84533 10812 ft 264 kts 305°
2026-04-30 00:51 20.92157 -86.86166 10529 ft 262 kts 304°
2026-04-30 00:52 20.93168 -86.87795 10218 ft 261 kts 304°
2026-04-30 00:52 20.94169 -86.89390 9903 ft 260 kts 304°
2026-04-30 00:52 20.95169 -86.90986 9598 ft 259 kts 304°
2026-04-30 00:52 20.96183 -86.92604 9277 ft 258 kts 303°
2026-04-30 00:53 20.97177 -86.94199 8962 ft 258 kts 303°
2026-04-30 00:53 20.98166 -86.95782 8647 ft 257 kts 303°
2026-04-30 00:53 20.99160 -86.97369 8327 ft 257 kts 303°
2026-04-30 00:53 21.00171 -86.98979 8000 ft 256 kts 303°
2026-04-30 00:54 21.01149 -87.00540 7747 ft 253 kts 303°
2026-04-30 00:54 21.02123 -87.02095 7436 ft 252 kts 304°
2026-04-30 00:54 21.03108 -87.03653 7144 ft 251 kts 304°
2026-04-30 00:54 21.04060 -87.05166 6950 ft 245 kts 305°
2026-04-30 00:55 21.05005 -87.06704 6684 ft 243 kts 305°
2026-04-30 00:55 21.05944 -87.08219 6381 ft 242 kts 305°
2026-04-30 00:55 21.07815 -87.11194 5500 ft 247 kts 305°
2026-04-30 00:56 21.08781 -87.12743 4994 ft 250 kts 304°
2026-04-30 00:56 21.09733 -87.14287 4603 ft 248 kts 304°
2026-04-30 00:56 21.10691 -87.15829 4186 ft 246 kts 304°
2026-04-30 00:56 21.11767 -87.17251 3746 ft 246 kts 322°
2026-04-30 00:57 21.13284 -87.18065 3308 ft 244 kts 349°
2026-04-30 00:57 21.14943 -87.18058 2884 ft 241 kts 16°
2026-04-30 00:57 21.16419 -87.17238 2557 ft 233 kts 41°
2026-04-30 00:57 21.17551 -87.16058 2319 ft 226 kts 47°
2026-04-30 00:58 21.18583 -87.14791 2059 ft 224 kts 58°
2026-04-30 00:58 21.19188 -87.13319 1969 ft 212 kts 78°
2026-04-30 00:58 21.19078 -87.11819 1961 ft 200 kts 116°
2026-04-30 00:58 21.18550 -87.10998 1991 ft 200 kts 130°
2026-04-30 00:59 21.17656 -87.09859 2005 ft 200 kts 128°
2026-04-30 00:59 21.16823 -87.08680 2004 ft 200 kts 126°
2026-04-30 00:59 21.16015 -87.07448 2002 ft 200 kts 124°
2026-04-30 00:59 21.15254 -87.06240 2016 ft 190 kts 123°
2026-04-30 01:00 21.14556 -87.05111 1986 ft 174 kts 123°
2026-04-30 01:00 21.13909 -87.04075 1980 ft 159 kts 123°
2026-04-30 01:00 21.13309 -87.03118 2013 ft 154 kts 123°
2026-04-30 01:00 21.12680 -87.02206 2011 ft 154 kts 126°
2026-04-30 01:01 21.12095 -87.01235 2009 ft 154 kts 124°
2026-04-30 01:01 21.11522 -87.00273 2006 ft 154 kts 121°
2026-04-30 01:01 21.10934 -86.99313 1982 ft 155 kts 124°
2026-04-30 01:01 21.10669 -86.98896 1932 ft 155 kts 123°
2026-04-30 01:02 21.10059 -86.97942 1801 ft 153 kts 123°
2026-04-30 01:02 21.09469 -86.96989 1683 ft 153 kts 123°
2026-04-30 01:02 21.08880 -86.96047 1552 ft 150 kts 123°
2026-04-30 01:02 21.08303 -86.95126 1375 ft 151 kts 123°
2026-04-30 01:03 21.07718 -86.94192 1166 ft 150 kts 123°
2026-04-30 01:03 21.07152 -86.93290 973 ft 150 kts 123°
2026-04-30 01:03 21.06566 -86.92355 772 ft 150 kts 123°
2026-04-30 01:03 21.05985 -86.91431 573 ft 149 kts 124°
2026-04-30 01:04 21.05397 -86.90512 381 ft 149 kts 123°
2026-04-30 01:04 21.04838 -86.89599 193 ft 148 kts 123°
2026-04-30 01:04 21.04253 -86.88676 54 ft 144 kts 124°
2026-04-30 01:04 21.03743 -86.87853 34 ft 118 kts 123°
2026-04-30 01:05 21.03389 -86.87287 34 ft 68 kts 124°
2026-04-30 01:05 21.03208 -86.86988 34 ft 35 kts 122°
2026-04-30 01:05 21.03118 -86.86843 34 ft 10 kts 124°
2026-04-30 01:05 21.03061 -86.86754 34 ft 19 kts 124°
2026-04-30 01:06 21.02954 -86.86588 34 ft 31 kts 124°
2026-04-30 01:06 21.02835 -86.86399 34 ft 31 kts 124°
2026-04-30 01:06 21.02838 -86.86257 34 ft 15 kts
2026-04-30 01:06 21.02904 -86.86218 34 ft 9 kts 11°
2026-04-30 01:07 21.02933 -86.86243 34 ft 6 kts 315°
2026-04-30 01:07 21.02958 -86.86283 34 ft 7 kts 295°
2026-04-30 01:07 21.02993 -86.86332 34 ft 9 kts 306°
2026-04-30 01:07 21.03033 -86.86398 34 ft 12 kts 302°
2026-04-30 01:08 21.03081 -86.86479 34 ft 14 kts 303°
2026-04-30 01:08 21.03140 -86.86575 34 ft 17 kts 305°
2026-04-30 01:08 21.03211 -86.86684 34 ft 19 kts 305°
2026-04-30 01:08 21.03285 -86.86746 34 ft 11 kts 10°
2026-04-30 01:09 21.03352 -86.86760 34 ft 4 kts 298°
2026-04-30 01:09 21.03361 -86.86784 34 ft 5 kts 293°
2026-04-30 01:09 21.03382 -86.86821 34 ft 7 kts 302°
2026-04-30 01:09 21.03413 -86.86872 34 ft 9 kts 304°
2026-04-30 01:10 21.03455 -86.86937 34 ft 12 kts 305°
2026-04-30 01:10 21.03506 -86.87017 34 ft 14 kts 301°
2026-04-30 01:10 21.03549 -86.87092 34 ft 6 kts 304°
2026-04-30 01:10 21.03579 -86.87138 34 ft 8 kts 313°
2026-04-30 01:11 21.03617 -86.87137 34 ft 6 kts
2026-04-30 01:11 21.03648 -86.87120 34 ft 2 kts 34°
2026-04-30 01:11 21.03653 -86.87116 34 ft 2 kts 36°
2026-04-30 01:11 21.03663 -86.87109 34 ft 1 kts 31°
2026-04-30 01:12 21.03667 -86.87106 34 ft 0 kts 34°
2026-04-30 01:12 21.03669 -86.87104 34 ft 0 kts 34°